owner,sensor,date,latitude,longitude,vertical_datum,sea_water_practical_salinity,qcFlag 
ENP,ioos.station.NOAA.NDBC:LBRF1:1,2017-08-01T00:00:00Z,25.4840,-81.1330,1.5,1.8,11111222 
ENP,ioos.station.NOAA.NDBC:LBRF1:1,2017-08-01T03:00:00Z,25.4840,-81.1330,1.5,7.26,1111122 
ENP,ioos.station.NOAA.NDBC:LBRF1:1,2017-08-01T06:00:00Z,25.4840,-81.1330,1.5,6.6,11111222 
ENP,ioos.station.NOAA.NDBC:LBRF1:1,2017-08-01T07:00:00Z,25.4840,-81.1330,1.5,4.78,1111122 
ENP,ioos.station.NOAA.NDBC:LBRF1:1,2017-08-01T10:00:00Z,25.4840,-81.1330,1.5,1.95,1111122 
ENP,ioos.station.NOAA.NDBC:LBRF1:1,2017-08-01T11:00:00Z,25.4840,-81.1330,1.5,1.9,11111222 
ENP,ioos.station.NOAA.NDBC:LBRF1:1,2017-08-01T12:00:00Z,25.4840,-81.1330,1.5,5.7,11111222 
ENP,ioos.station.NOAA.NDBC:LBRF1:1,2017-08-01T13:00:00Z,25.4840,-81.1330,1.5,7.7,11111222 
ENP,ioos.station.NOAA.NDBC:LBRF1:1,2017-08-01T14:00:00Z,25.4840,-81.1330,1.5,9.0,11111222 
ENP,ioos.station.NOAA.NDBC:LBRF1:1,2017-08-01T15:00:00Z,25.4840,-81.1330,1.5,10.9,11111222 
ENP,ioos.station.NOAA.NDBC:LBRF1:1,2017-08-01T16:00:00Z,25.4840,-81.1330,1.5,10.9,11111222 
ENP,ioos.station.NOAA.NDBC:LBRF1:1,2017-08-01T17:00:00Z,25.4840,-81.1330,1.5,6.3,11111222 
ENP,ioos.station.NOAA.NDBC:LBRF1:1,2017-08-01T18:00:00Z,25.4840,-81.1330,1.5,5.5,11111222 
ENP,ioos.station.NOAA.NDBC:LBRF1:1,2017-08-01T19:00:00Z,25.4840,-81.1330,1.5,2.5,11111222 
ENP,ioos.station.NOAA.NDBC:LBRF1:1,2017-08-01T21:00:00Z,25.4840,-81.1330,1.5,1.6,11111222 
ENP,ioos.station.NOAA.NDBC:LBRF1:1,2017-08-01T22:00:00Z,25.4840,-81.1330,1.5,1.6,11111222 
ENP,ioos.station.NOAA.NDBC:LBRF1:1,2017-08-01T23:00:00Z,25.4840,-81.1330,1.5,1.5,11111222 
ENP,ioos.station.NOAA.NDBC:LBRF1:1,2017-08-02T00:00:00Z,25.4840,-81.1330,1.5,1.42,1111122 
ENP,ioos.station.NOAA.NDBC:LBRF1:1,2017-08-02T03:00:00Z,25.4840,-81.1330,1.5,1.38,1111122 
ENP,ioos.station.NOAA.NDBC:LBRF1:1,2017-08-02T06:00:00Z,25.4840,-81.1330,1.5,1.4,11111222 
ENP,ioos.station.NOAA.NDBC:LBRF1:1,2017-08-02T07:00:00Z,25.4840,-81.1330,1.5,1.4,11111222 
ENP,ioos.station.NOAA.NDBC:LBRF1:1,2017-08-02T08:00:00Z,25.4840,-81.1330,1.5,1.3,11111222 
ENP,ioos.station.NOAA.NDBC:LBRF1:1,2017-08-02T10:00:00Z,25.4840,-81.1330,1.5,1.12,1111122 
ENP,ioos.station.NOAA.NDBC:LBRF1:1,2017-08-02T11:00:00Z,25.4840,-81.1330,1.5,1.1,11111222 
ENP,ioos.station.NOAA.NDBC:LBRF1:1,2017-08-02T13:00:00Z,25.4840,-81.1330,1.5,1.1,11111222 
ENP,ioos.station.NOAA.NDBC:LBRF1:1,2017-08-02T14:00:00Z,25.4840,-81.1330,1.5,1.3,11111222 
ENP,ioos.station.NOAA.NDBC:LBRF1:1,2017-08-02T15:00:00Z,25.4840,-81.1330,1.5,13.4,11111222 
ENP,ioos.station.NOAA.NDBC:LBRF1:1,2017-08-02T16:00:00Z,25.4840,-81.1330,1.5,24.5,11111222 
ENP,ioos.station.NOAA.NDBC:LBRF1:1,2017-08-02T17:00:00Z,25.4840,-81.1330,1.5,24.9,11111222 
ENP,ioos.station.NOAA.NDBC:LBRF1:1,2017-08-02T18:00:00Z,25.4840,-81.1330,1.5,14.3,11111222 
ENP,ioos.station.NOAA.NDBC:LBRF1:1,2017-08-02T19:00:00Z,25.4840,-81.1330,1.5,3.2,11111222 
ENP,ioos.station.NOAA.NDBC:LBRF1:1,2017-08-02T20:00:00Z,25.4840,-81.1330,1.5,1.2,11111222 
ENP,ioos.station.NOAA.NDBC:LBRF1:1,2017-08-02T21:00:00Z,25.4840,-81.1330,1.5,1.1,11111222 
ENP,ioos.station.NOAA.NDBC:LBRF1:1,2017-08-02T22:00:00Z,25.4840,-81.1330,1.5,1.02,1111122 
ENP,ioos.station.NOAA.NDBC:LBRF1:1,2017-08-02T23:00:00Z,25.4840,-81.1330,1.5,0.9,11111222 
ENP,ioos.station.NOAA.NDBC:LBRF1:1,2017-08-03T00:00:00Z,25.4840,-81.1330,1.5,0.82,1111122 
ENP,ioos.station.NOAA.NDBC:LBRF1:1,2017-08-03T03:00:00Z,25.4840,-81.1330,1.5,0.77,1111122 
ENP,ioos.station.NOAA.NDBC:LBRF1:1,2017-08-03T06:00:00Z,25.4840,-81.1330,1.5,6.39,1111122 
ENP,ioos.station.NOAA.NDBC:LBRF1:1,2017-08-03T07:00:00Z,25.4840,-81.1330,1.5,2.4,11111222 
ENP,ioos.station.NOAA.NDBC:LBRF1:1,2017-08-03T08:00:00Z,25.4840,-81.1330,1.5,1.0,11111222 
ENP,ioos.station.NOAA.NDBC:LBRF1:1,2017-08-03T10:00:00Z,25.4840,-81.1330,1.5,0.92,1111122 
ENP,ioos.station.NOAA.NDBC:LBRF1:1,2017-08-03T11:00:00Z,25.4840,-81.1330,1.5,0.9,11111222 
ENP,ioos.station.NOAA.NDBC:LBRF1:1,2017-08-03T12:00:00Z,25.4840,-81.1330,1.5,0.9,11111222 
ENP,ioos.station.NOAA.NDBC:LBRF1:1,2017-08-03T13:00:00Z,25.4840,-81.1330,1.5,2.2,11111222 
ENP,ioos.station.NOAA.NDBC:LBRF1:1,2017-08-03T14:00:00Z,25.4840,-81.1330,1.5,8.8,11111222 
ENP,ioos.station.NOAA.NDBC:LBRF1:1,2017-08-03T15:00:00Z,25.4840,-81.1330,1.5,13.67,1111122 
ENP,ioos.station.NOAA.NDBC:LBRF1:1,2017-08-03T16:00:00Z,25.4840,-81.1330,1.5,22.2,1111122 
ENP,ioos.station.NOAA.NDBC:LBRF1:1,2017-08-03T17:00:00Z,25.4840,-81.1330,1.5,27.5,11111222 
ENP,ioos.station.NOAA.NDBC:LBRF1:1,2017-08-03T18:00:00Z,25.4840,-81.1330,1.5,27.4,11111222 
ENP,ioos.station.NOAA.NDBC:LBRF1:1,2017-08-03T19:00:00Z,25.4840,-81.1330,1.5,22.27,1111122 
ENP,ioos.station.NOAA.NDBC:LBRF1:1,2017-08-03T21:00:00Z,25.4840,-81.1330,1.5,3.7,11111222 
ENP,ioos.station.NOAA.NDBC:LBRF1:1,2017-08-03T22:00:00Z,25.4840,-81.1330,1.5,1.1,11111222 
ENP,ioos.station.NOAA.NDBC:LBRF1:1,2017-08-03T23:00:00Z,25.4840,-81.1330,1.5,0.9,11111222 
ENP,ioos.station.NOAA.NDBC:LBRF1:1,2017-08-04T00:00:00Z,25.4840,-81.1330,1.5,0.92,1111122 
ENP,ioos.station.NOAA.NDBC:LBRF1:1,2017-08-04T03:00:00Z,25.4840,-81.1330,1.5,0.9,11111222 
ENP,ioos.station.NOAA.NDBC:LBRF1:1,2017-08-04T06:00:00Z,25.4840,-81.1330,1.5,4.0,11111222 
ENP,ioos.station.NOAA.NDBC:LBRF1:1,2017-08-04T07:00:00Z,25.4840,-81.1330,1.5,5.5,11111222 
ENP,ioos.station.NOAA.NDBC:LBRF1:1,2017-08-04T08:00:00Z,25.4840,-81.1330,1.5,1.5,11111222 
ENP,ioos.station.NOAA.NDBC:LBRF1:1,2017-08-04T10:00:00Z,25.4840,-81.1330,1.5,1.01,1111122 
ENP,ioos.station.NOAA.NDBC:LBRF1:1,2017-08-04T11:00:00Z,25.4840,-81.1330,1.5,0.97,1111122 
ENP,ioos.station.NOAA.NDBC:LBRF1:1,2017-08-04T13:00:00Z,25.4840,-81.1330,1.5,0.9,11111222 
ENP,ioos.station.NOAA.NDBC:LBRF1:1,2017-08-04T14:00:00Z,25.4840,-81.1330,1.5,0.8,11111222 
ENP,ioos.station.NOAA.NDBC:LBRF1:1,2017-08-04T15:00:00Z,25.4840,-81.1330,1.5,0.88,1111122 
ENP,ioos.station.NOAA.NDBC:LBRF1:1,2017-08-04T16:00:00Z,25.4840,-81.1330,1.5,6.3,11111222 
ENP,ioos.station.NOAA.NDBC:LBRF1:1,2017-08-04T17:00:00Z,25.4840,-81.1330,1.5,17.1,11111222 
ENP,ioos.station.NOAA.NDBC:LBRF1:1,2017-08-04T18:00:00Z,25.4840,-81.1330,1.5,24.4,11111222 
ENP,ioos.station.NOAA.NDBC:LBRF1:1,2017-08-04T19:00:00Z,25.4840,-81.1330,1.5,23.8,11111222 
ENP,ioos.station.NOAA.NDBC:LBRF1:1,2017-08-04T20:00:00Z,25.4840,-81.1330,1.5,14.3,11111222 
ENP,ioos.station.NOAA.NDBC:LBRF1:1,2017-08-04T21:00:00Z,25.4840,-81.1330,1.5,4.2,11111222 
ENP,ioos.station.NOAA.NDBC:LBRF1:1,2017-08-04T22:00:00Z,25.4840,-81.1330,1.5,1.2,11111222 
ENP,ioos.station.NOAA.NDBC:LBRF1:1,2017-08-04T23:00:00Z,25.4840,-81.1330,1.5,1.0,11111222 
ENP,ioos.station.NOAA.NDBC:LBRF1:1,2017-08-05T00:00:00Z,25.4840,-81.1330,1.5,0.93,1111122 
ENP,ioos.station.NOAA.NDBC:LBRF1:1,2017-08-05T03:00:00Z,25.4840,-81.1330,1.5,0.9,11111222 
ENP,ioos.station.NOAA.NDBC:LBRF1:1,2017-08-05T06:00:00Z,25.4840,-81.1330,1.5,3.6,11111222 
ENP,ioos.station.NOAA.NDBC:LBRF1:1,2017-08-05T07:00:00Z,25.4840,-81.1330,1.5,9.3,11111222 
ENP,ioos.station.NOAA.NDBC:LBRF1:1,2017-08-05T08:00:00Z,25.4840,-81.1330,1.5,13.28,1111122 
ENP,ioos.station.NOAA.NDBC:LBRF1:1,2017-08-05T10:00:00Z,25.4840,-81.1330,1.5,2.2,11111222 
ENP,ioos.station.NOAA.NDBC:LBRF1:1,2017-08-05T11:00:00Z,25.4840,-81.1330,1.5,1.24,1111122 
ENP,ioos.station.NOAA.NDBC:LBRF1:1,2017-08-05T12:00:00Z,25.4840,-81.1330,1.5,1.1,1111122 
ENP,ioos.station.NOAA.NDBC:LBRF1:1,2017-08-05T13:00:00Z,25.4840,-81.1330,1.5,1.1,11111222 
ENP,ioos.station.NOAA.NDBC:LBRF1:1,2017-08-05T14:00:00Z,25.4840,-81.1330,1.5,1.0,11111222 
ENP,ioos.station.NOAA.NDBC:LBRF1:1,2017-08-05T15:00:00Z,25.4840,-81.1330,1.5,8.4,11111222 
ENP,ioos.station.NOAA.NDBC:LBRF1:1,2017-08-05T16:00:00Z,25.4840,-81.1330,1.5,10.6,11111222 
ENP,ioos.station.NOAA.NDBC:LBRF1:1,2017-08-05T17:00:00Z,25.4840,-81.1330,1.5,19.9,11111222 
ENP,ioos.station.NOAA.NDBC:LBRF1:1,2017-08-05T18:00:00Z,25.4840,-81.1330,1.5,23.95,1111122 
ENP,ioos.station.NOAA.NDBC:LBRF1:1,2017-08-05T19:00:00Z,25.4840,-81.1330,1.5,25.7,11111222 
ENP,ioos.station.NOAA.NDBC:LBRF1:1,2017-08-05T21:00:00Z,25.4840,-81.1330,1.5,21.8,11111222 
ENP,ioos.station.NOAA.NDBC:LBRF1:1,2017-08-05T22:00:00Z,25.4840,-81.1330,1.5,19.0,11111222 
ENP,ioos.station.NOAA.NDBC:LBRF1:1,2017-08-05T23:00:00Z,25.4840,-81.1330,1.5,10.87,1111122 
ENP,ioos.station.NOAA.NDBC:LBRF1:1,2017-08-06T00:00:00Z,25.4840,-81.1330,1.5,5.1,11111222 
ENP,ioos.station.NOAA.NDBC:LBRF1:1,2017-08-06T03:00:00Z,25.4840,-81.1330,1.5,1.19,1111122 
ENP,ioos.station.NOAA.NDBC:LBRF1:1,2017-08-06T06:00:00Z,25.4840,-81.1330,1.5,1.45,1111122 
ENP,ioos.station.NOAA.NDBC:LBRF1:1,2017-08-06T07:00:00Z,25.4840,-81.1330,1.5,10.2,11111222 
ENP,ioos.station.NOAA.NDBC:LBRF1:1,2017-08-06T08:00:00Z,25.4840,-81.1330,1.5,14.5,11111222 
ENP,ioos.station.NOAA.NDBC:LBRF1:1,2017-08-06T10:00:00Z,25.4840,-81.1330,1.5,4.88,1111122 
ENP,ioos.station.NOAA.NDBC:LBRF1:1,2017-08-06T11:00:00Z,25.4840,-81.1330,1.5,1.62,1111122 
ENP,ioos.station.NOAA.NDBC:LBRF1:1,2017-08-06T13:00:00Z,25.4840,-81.1330,1.5,1.11,1111122 
ENP,ioos.station.NOAA.NDBC:LBRF1:1,2017-08-06T14:00:00Z,25.4840,-81.1330,1.5,1.01,1111122 
ENP,ioos.station.NOAA.NDBC:LBRF1:1,2017-08-06T15:00:00Z,25.4840,-81.1330,1.5,0.98,1111122 
ENP,ioos.station.NOAA.NDBC:LBRF1:1,2017-08-06T16:00:00Z,25.4840,-81.1330,1.5,1.3,1111122 
ENP,ioos.station.NOAA.NDBC:LBRF1:1,2017-08-06T17:00:00Z,25.4840,-81.1330,1.5,7.95,1111122 
ENP,ioos.station.NOAA.NDBC:LBRF1:1,2017-08-06T18:00:00Z,25.4840,-81.1330,1.5,19.11,1111122 
ENP,ioos.station.NOAA.NDBC:LBRF1:1,2017-08-06T19:00:00Z,25.4840,-81.1330,1.5,25.0,11111222 
ENP,ioos.station.NOAA.NDBC:LBRF1:1,2017-08-06T20:00:00Z,25.4840,-81.1330,1.5,25.5,11111222 
ENP,ioos.station.NOAA.NDBC:LBRF1:1,2017-08-06T21:00:00Z,25.4840,-81.1330,1.5,24.4,11111222 
ENP,ioos.station.NOAA.NDBC:LBRF1:1,2017-08-06T22:00:00Z,25.4840,-81.1330,1.5,17.5,11111222 
ENP,ioos.station.NOAA.NDBC:LBRF1:1,2017-08-06T23:00:00Z,25.4840,-81.1330,1.5,11.7,11111222 
ENP,ioos.station.NOAA.NDBC:LBRF1:1,2017-08-07T00:00:00Z,25.4840,-81.1330,1.5,4.48,1111122 
ENP,ioos.station.NOAA.NDBC:LBRF1:1,2017-08-07T03:00:00Z,25.4840,-81.1330,1.5,1.1,11111222 
ENP,ioos.station.NOAA.NDBC:LBRF1:1,2017-08-07T06:00:00Z,25.4840,-81.1330,1.5,1.01,1111122 
ENP,ioos.station.NOAA.NDBC:LBRF1:1,2017-08-07T07:00:00Z,25.4840,-81.1330,1.5,3.52,1111122 
ENP,ioos.station.NOAA.NDBC:LBRF1:1,2017-08-07T08:00:00Z,25.4840,-81.1330,1.5,11.06,1111122 
ENP,ioos.station.NOAA.NDBC:LBRF1:1,2017-08-07T10:00:00Z,25.4840,-81.1330,1.5,10.42,1111122 
ENP,ioos.station.NOAA.NDBC:LBRF1:1,2017-08-07T11:00:00Z,25.4840,-81.1330,1.5,2.17,1111122 
ENP,ioos.station.NOAA.NDBC:LBRF1:1,2017-08-07T12:00:00Z,25.4840,-81.1330,1.5,1.33,1111122 
ENP,ioos.station.NOAA.NDBC:LBRF1:1,2017-08-07T13:00:00Z,25.4840,-81.1330,1.5,1.22,1111122 
ENP,ioos.station.NOAA.NDBC:LBRF1:1,2017-08-07T14:00:00Z,25.4840,-81.1330,1.5,1.05,1111122 
ENP,ioos.station.NOAA.NDBC:LBRF1:1,2017-08-07T15:00:00Z,25.4840,-81.1330,1.5,0.97,1111122 
ENP,ioos.station.NOAA.NDBC:LBRF1:1,2017-08-07T16:00:00Z,25.4840,-81.1330,1.5,0.98,1111122 
ENP,ioos.station.NOAA.NDBC:LBRF1:1,2017-08-07T17:00:00Z,25.4840,-81.1330,1.5,5.14,1111122 
ENP,ioos.station.NOAA.NDBC:LBRF1:1,2017-08-07T18:00:00Z,25.4840,-81.1330,1.5,16.94,1111122 
ENP,ioos.station.NOAA.NDBC:LBRF1:1,2017-08-07T19:00:00Z,25.4840,-81.1330,1.5,23.46,1111122 
ENP,ioos.station.NOAA.NDBC:LBRF1:1,2017-08-07T21:00:00Z,25.4840,-81.1330,1.5,25.85,1111122 
ENP,ioos.station.NOAA.NDBC:LBRF1:1,2017-08-07T22:00:00Z,25.4840,-81.1330,1.5,23.25,1111122 
ENP,ioos.station.NOAA.NDBC:LBRF1:1,2017-08-07T23:00:00Z,25.4840,-81.1330,1.5,19.7,11111222 
ENP,ioos.station.NOAA.NDBC:LBRF1:1,2017-08-08T00:00:00Z,25.4840,-81.1330,1.5,13.8,11111222 
ENP,ioos.station.NOAA.NDBC:LBRF1:1,2017-08-08T06:00:00Z,25.4840,-81.1330,1.5,1.2,11111222 
ENP,ioos.station.NOAA.NDBC:LBRF1:1,2017-08-08T07:00:00Z,25.4840,-81.1330,1.5,3.63,1111122 
ENP,ioos.station.NOAA.NDBC:LBRF1:1,2017-08-08T08:00:00Z,25.4840,-81.1330,1.5,13.41,1111122 
ENP,ioos.station.NOAA.NDBC:LBRF1:1,2017-08-08T10:00:00Z,25.4840,-81.1330,1.5,16.53,1111122 
ENP,ioos.station.NOAA.NDBC:LBRF1:1,2017-08-08T11:00:00Z,25.4840,-81.1330,1.5,10.42,1111122 
ENP,ioos.station.NOAA.NDBC:LBRF1:1,2017-08-08T13:00:00Z,25.4840,-81.1330,1.5,1.59,1111122 
ENP,ioos.station.NOAA.NDBC:LBRF1:1,2017-08-08T14:00:00Z,25.4840,-81.1330,1.5,1.3,11111222 
ENP,ioos.station.NOAA.NDBC:LBRF1:1,2017-08-08T15:00:00Z,25.4840,-81.1330,1.5,1.12,1111122 
ENP,ioos.station.NOAA.NDBC:LBRF1:1,2017-08-08T16:00:00Z,25.4840,-81.1330,1.5,1.1,11111222 
ENP,ioos.station.NOAA.NDBC:LBRF1:1,2017-08-08T17:00:00Z,25.4840,-81.1330,1.5,1.08,1111122 
ENP,ioos.station.NOAA.NDBC:LBRF1:1,2017-08-08T18:00:00Z,25.4840,-81.1330,1.5,8.46,1111122 
ENP,ioos.station.NOAA.NDBC:LBRF1:1,2017-08-08T19:00:00Z,25.4840,-81.1330,1.5,19.11,1111122 
ENP,ioos.station.NOAA.NDBC:LBRF1:1,2017-08-08T20:00:00Z,25.4840,-81.1330,1.5,23.5,11111222 
ENP,ioos.station.NOAA.NDBC:LBRF1:1,2017-08-08T21:00:00Z,25.4840,-81.1330,1.5,25.28,1111122 
ENP,ioos.station.NOAA.NDBC:LBRF1:1,2017-08-08T22:00:00Z,25.4840,-81.1330,1.5,25.5,11111222 
ENP,ioos.station.NOAA.NDBC:LBRF1:1,2017-08-08T23:00:00Z,25.4840,-81.1330,1.5,20.2,11111222 
ENP,ioos.station.NOAA.NDBC:LBRF1:1,2017-08-09T00:00:00Z,25.4840,-81.1330,1.5,18.9,1111122 
ENP,ioos.station.NOAA.NDBC:LBRF1:1,2017-08-09T03:00:00Z,25.4840,-81.1330,1.5,2.0,11111222 
ENP,ioos.station.NOAA.NDBC:LBRF1:1,2017-08-09T06:00:00Z,25.4840,-81.1330,1.5,1.4,11111222 
ENP,ioos.station.NOAA.NDBC:LBRF1:1,2017-08-09T07:00:00Z,25.4840,-81.1330,1.5,1.43,1111122 
ENP,ioos.station.NOAA.NDBC:LBRF1:1,2017-08-09T08:00:00Z,25.4840,-81.1330,1.5,9.6,11111222 
ENP,ioos.station.NOAA.NDBC:LBRF1:1,2017-08-09T10:00:00Z,25.4840,-81.1330,1.5,18.22,1111122 
ENP,ioos.station.NOAA.NDBC:LBRF1:1,2017-08-09T11:00:00Z,25.4840,-81.1330,1.5,12.82,1111122 
ENP,ioos.station.NOAA.NDBC:LBRF1:1,2017-08-09T12:00:00Z,25.4840,-81.1330,1.5,6.86,1111122 
ENP,ioos.station.NOAA.NDBC:LBRF1:1,2017-08-09T13:00:00Z,25.4840,-81.1330,1.5,2.2,11111222 
ENP,ioos.station.NOAA.NDBC:LBRF1:1,2017-08-09T14:00:00Z,25.4840,-81.1330,1.5,1.51,1111122 
ENP,ioos.station.NOAA.NDBC:LBRF1:1,2017-08-09T15:00:00Z,25.4840,-81.1330,1.5,1.17,1111122 
ENP,ioos.station.NOAA.NDBC:LBRF1:1,2017-08-09T16:00:00Z,25.4840,-81.1330,1.5,1.1,11111222 
ENP,ioos.station.NOAA.NDBC:LBRF1:1,2017-08-09T17:00:00Z,25.4840,-81.1330,1.5,1.09,1111122 
ENP,ioos.station.NOAA.NDBC:LBRF1:1,2017-08-09T18:00:00Z,25.4840,-81.1330,1.5,4.1,11111222 
ENP,ioos.station.NOAA.NDBC:LBRF1:1,2017-08-09T19:00:00Z,25.4840,-81.1330,1.5,17.8,11111222 
ENP,ioos.station.NOAA.NDBC:LBRF1:1,2017-08-09T21:00:00Z,25.4840,-81.1330,1.5,26.8,11111222 
ENP,ioos.station.NOAA.NDBC:LBRF1:1,2017-08-09T22:00:00Z,25.4840,-81.1330,1.5,27.1,11111222 
ENP,ioos.station.NOAA.NDBC:LBRF1:1,2017-08-09T23:00:00Z,25.4840,-81.1330,1.5,26.7,11111222 
ENP,ioos.station.NOAA.NDBC:LBRF1:1,2017-08-10T00:00:00Z,25.4840,-81.1330,1.5,21.7,11111222 
ENP,ioos.station.NOAA.NDBC:LBRF1:1,2017-08-10T06:00:00Z,25.4840,-81.1330,1.5,1.46,1111122 
ENP,ioos.station.NOAA.NDBC:LBRF1:1,2017-08-10T07:00:00Z,25.4840,-81.1330,1.5,1.5,11111222 
ENP,ioos.station.NOAA.NDBC:LBRF1:1,2017-08-10T08:00:00Z,25.4840,-81.1330,1.5,7.9,11111222 
ENP,ioos.station.NOAA.NDBC:LBRF1:1,2017-08-10T10:00:00Z,25.4840,-81.1330,1.5,19.45,1111122 
ENP,ioos.station.NOAA.NDBC:LBRF1:1,2017-08-10T11:00:00Z,25.4840,-81.1330,1.5,19.79,1111122 
ENP,ioos.station.NOAA.NDBC:LBRF1:1,2017-08-11T11:00:00Z,25.4840,-81.1330,1.5,18.3,11111222 
ENP,ioos.station.NOAA.NDBC:LBRF1:1,2017-08-11T12:00:00Z,25.4840,-81.1330,1.5,16.2,11111222 
ENP,ioos.station.NOAA.NDBC:LBRF1:1,2017-08-11T13:00:00Z,25.4840,-81.1330,1.5,9.08,1111122 
ENP,ioos.station.NOAA.NDBC:LBRF1:1,2017-08-11T14:00:00Z,25.4840,-81.1330,1.5,2.5,11111222 
ENP,ioos.station.NOAA.NDBC:LBRF1:1,2017-08-11T15:00:00Z,25.4840,-81.1330,1.5,1.6,11111222 
ENP,ioos.station.NOAA.NDBC:LBRF1:1,2017-08-11T16:00:00Z,25.4840,-81.1330,1.5,1.3,11111222 
ENP,ioos.station.NOAA.NDBC:LBRF1:1,2017-08-11T17:00:00Z,25.4840,-81.1330,1.5,1.2,11111222 
ENP,ioos.station.NOAA.NDBC:LBRF1:1,2017-08-11T18:00:00Z,25.4840,-81.1330,1.5,1.13,1111122 
ENP,ioos.station.NOAA.NDBC:LBRF1:1,2017-08-11T19:00:00Z,25.4840,-81.1330,1.5,1.11,1111122 
ENP,ioos.station.NOAA.NDBC:LBRF1:1,2017-08-11T21:00:00Z,25.4840,-81.1330,1.5,8.36,1111122 
ENP,ioos.station.NOAA.NDBC:LBRF1:1,2017-08-11T22:00:00Z,25.4840,-81.1330,1.5,19.86,1111122 
ENP,ioos.station.NOAA.NDBC:LBRF1:1,2017-08-11T23:00:00Z,25.4840,-81.1330,1.5,22.2,1111122 
ENP,ioos.station.NOAA.NDBC:LBRF1:1,2017-08-12T00:00:00Z,25.4840,-81.1330,1.5,21.72,1111122 
ENP,ioos.station.NOAA.NDBC:LBRF1:1,2017-08-12T03:00:00Z,25.4840,-81.1330,1.5,1.87,1111122 
ENP,ioos.station.NOAA.NDBC:LBRF1:1,2017-08-12T06:00:00Z,25.4840,-81.1330,1.5,1.14,1111122 
ENP,ioos.station.NOAA.NDBC:LBRF1:1,2017-08-12T07:00:00Z,25.4840,-81.1330,1.5,1.1,1111122 
ENP,ioos.station.NOAA.NDBC:LBRF1:1,2017-08-12T08:00:00Z,25.4840,-81.1330,1.5,1.1,1111122 
ENP,ioos.station.NOAA.NDBC:LBRF1:1,2017-08-12T10:00:00Z,25.4840,-81.1330,1.5,7.14,1111122 
ENP,ioos.station.NOAA.NDBC:LBRF1:1,2017-08-12T11:00:00Z,25.4840,-81.1330,1.5,15.13,1111122 
ENP,ioos.station.NOAA.NDBC:LBRF1:1,2017-08-12T13:00:00Z,25.4840,-81.1330,1.5,11.91,1111122 
ENP,ioos.station.NOAA.NDBC:LBRF1:1,2017-08-12T14:00:00Z,25.4840,-81.1330,1.5,4.45,1111122 
ENP,ioos.station.NOAA.NDBC:LBRF1:1,2017-08-12T15:00:00Z,25.4840,-81.1330,1.5,1.66,1111122 
ENP,ioos.station.NOAA.NDBC:LBRF1:1,2017-08-12T16:00:00Z,25.4840,-81.1330,1.5,1.37,1111122 
ENP,ioos.station.NOAA.NDBC:LBRF1:1,2017-08-12T17:00:00Z,25.4840,-81.1330,1.5,1.17,1111122 
ENP,ioos.station.NOAA.NDBC:LBRF1:1,2017-08-12T18:00:00Z,25.4840,-81.1330,1.5,1.13,1111122 
ENP,ioos.station.NOAA.NDBC:LBRF1:1,2017-08-12T19:00:00Z,25.4840,-81.1330,1.5,1.1,1111122 
ENP,ioos.station.NOAA.NDBC:LBRF1:1,2017-08-12T20:00:00Z,25.4840,-81.1330,1.5,1.09,1111122 
ENP,ioos.station.NOAA.NDBC:LBRF1:1,2017-08-12T21:00:00Z,25.4840,-81.1330,1.5,1.15,1111122 
ENP,ioos.station.NOAA.NDBC:LBRF1:1,2017-08-12T22:00:00Z,25.4840,-81.1330,1.5,8.54,1111122 
ENP,ioos.station.NOAA.NDBC:LBRF1:1,2017-08-12T23:00:00Z,25.4840,-81.1330,1.5,16.4,1111122 
ENP,ioos.station.NOAA.NDBC:LBRF1:1,2017-08-13T00:00:00Z,25.4840,-81.1330,1.5,19.11,1111122 
ENP,ioos.station.NOAA.NDBC:LBRF1:1,2017-08-13T03:00:00Z,25.4840,-81.1330,1.5,3.8,1111122 
ENP,ioos.station.NOAA.NDBC:LBRF1:1,2017-08-13T06:00:00Z,25.4840,-81.1330,1.5,1.19,1111122 
ENP,ioos.station.NOAA.NDBC:LBRF1:1,2017-08-13T07:00:00Z,25.4840,-81.1330,1.5,1.15,1111122 
ENP,ioos.station.NOAA.NDBC:LBRF1:1,2017-08-13T08:00:00Z,25.4840,-81.1330,1.5,1.13,1111122 
ENP,ioos.station.NOAA.NDBC:LBRF1:1,2017-08-13T10:00:00Z,25.4840,-81.1330,1.5,1.7,11111222 
ENP,ioos.station.NOAA.NDBC:LBRF1:1,2017-08-13T11:00:00Z,25.4840,-81.1330,1.5,11.78,1111122 
ENP,ioos.station.NOAA.NDBC:LBRF1:1,2017-08-13T12:00:00Z,25.4840,-81.1330,1.5,17.95,1111122 
ENP,ioos.station.NOAA.NDBC:LBRF1:1,2017-08-13T13:00:00Z,25.4840,-81.1330,1.5,19.24,1111122 
ENP,ioos.station.NOAA.NDBC:LBRF1:1,2017-08-13T14:00:00Z,25.4840,-81.1330,1.5,12.56,1111122 
ENP,ioos.station.NOAA.NDBC:LBRF1:1,2017-08-13T15:00:00Z,25.4840,-81.1330,1.5,4.69,1111122 
ENP,ioos.station.NOAA.NDBC:LBRF1:1,2017-08-13T16:00:00Z,25.4840,-81.1330,1.5,1.69,1111122 
ENP,ioos.station.NOAA.NDBC:LBRF1:1,2017-08-13T17:00:00Z,25.4840,-81.1330,1.5,1.38,1111122 
ENP,ioos.station.NOAA.NDBC:LBRF1:1,2017-08-13T18:00:00Z,25.4840,-81.1330,1.5,1.18,1111122 
ENP,ioos.station.NOAA.NDBC:LBRF1:1,2017-08-13T19:00:00Z,25.4840,-81.1330,1.5,1.13,1111122 
ENP,ioos.station.NOAA.NDBC:LBRF1:1,2017-08-13T21:00:00Z,25.4840,-81.1330,1.5,1.06,1111122 
ENP,ioos.station.NOAA.NDBC:LBRF1:1,2017-08-13T22:00:00Z,25.4840,-81.1330,1.5,1.1,1111122 
ENP,ioos.station.NOAA.NDBC:LBRF1:1,2017-08-13T23:00:00Z,25.4840,-81.1330,1.5,1.38,1111122 
ENP,ioos.station.NOAA.NDBC:LBRF1:1,2017-08-14T00:00:00Z,25.4840,-81.1330,1.5,8.3,11111222 
ENP,ioos.station.NOAA.NDBC:LBRF1:1,2017-08-14T03:00:00Z,25.4840,-81.1330,1.5,2.77,1111122 
ENP,ioos.station.NOAA.NDBC:LBRF1:1,2017-08-14T06:00:00Z,25.4840,-81.1330,1.5,1.13,1111122 
ENP,ioos.station.NOAA.NDBC:LBRF1:1,2017-08-14T07:00:00Z,25.4840,-81.1330,1.5,1.05,1111122 
ENP,ioos.station.NOAA.NDBC:LBRF1:1,2017-08-14T08:00:00Z,25.4840,-81.1330,1.5,1.02,1111122 
ENP,ioos.station.NOAA.NDBC:LBRF1:1,2017-08-14T10:00:00Z,25.4840,-81.1330,1.5,1.04,1111122 
ENP,ioos.station.NOAA.NDBC:LBRF1:1,2017-08-14T11:00:00Z,25.4840,-81.1330,1.5,2.74,1111122 
ENP,ioos.station.NOAA.NDBC:LBRF1:1,2017-08-14T13:00:00Z,25.4840,-81.1330,1.5,18.63,1111122 
ENP,ioos.station.NOAA.NDBC:LBRF1:1,2017-08-14T14:00:00Z,25.4840,-81.1330,1.5,19.79,1111122 
ENP,ioos.station.NOAA.NDBC:LBRF1:1,2017-08-14T15:00:00Z,25.4840,-81.1330,1.5,11.3,11111222 
ENP,ioos.station.NOAA.NDBC:LBRF1:1,2017-08-14T16:00:00Z,25.4840,-81.1330,1.5,4.51,1111122 
ENP,ioos.station.NOAA.NDBC:LBRF1:1,2017-08-14T17:00:00Z,25.4840,-81.1330,1.5,2.0,1111122 
ENP,ioos.station.NOAA.NDBC:LBRF1:1,2017-08-14T18:00:00Z,25.4840,-81.1330,1.5,1.33,1111122 
ENP,ioos.station.NOAA.NDBC:LBRF1:1,2017-08-14T19:00:00Z,25.4840,-81.1330,1.5,1.09,1111122 
ENP,ioos.station.NOAA.NDBC:LBRF1:1,2017-08-14T20:00:00Z,25.4840,-81.1330,1.5,1.07,1111122 
ENP,ioos.station.NOAA.NDBC:LBRF1:1,2017-08-14T21:00:00Z,25.4840,-81.1330,1.5,1.0,1111122 
ENP,ioos.station.NOAA.NDBC:LBRF1:1,2017-08-14T22:00:00Z,25.4840,-81.1330,1.5,0.98,1111122 
ENP,ioos.station.NOAA.NDBC:LBRF1:1,2017-08-14T23:00:00Z,25.4840,-81.1330,1.5,0.95,1111122 
ENP,ioos.station.NOAA.NDBC:LBRF1:1,2017-08-15T00:00:00Z,25.4840,-81.1330,1.5,1.0,11111222 
ENP,ioos.station.NOAA.NDBC:LBRF1:1,2017-08-15T03:00:00Z,25.4840,-81.1330,1.5,2.64,1111122 
ENP,ioos.station.NOAA.NDBC:LBRF1:1,2017-08-15T06:00:00Z,25.4840,-81.1330,1.5,1.07,1111122 
ENP,ioos.station.NOAA.NDBC:LBRF1:1,2017-08-15T07:00:00Z,25.4840,-81.1330,1.5,1.0,1111122 
ENP,ioos.station.NOAA.NDBC:LBRF1:1,2017-08-15T08:00:00Z,25.4840,-81.1330,1.5,0.91,1111122 
ENP,ioos.station.NOAA.NDBC:LBRF1:1,2017-08-15T10:00:00Z,25.4840,-81.1330,1.5,0.9,11111222 
ENP,ioos.station.NOAA.NDBC:LBRF1:1,2017-08-15T11:00:00Z,25.4840,-81.1330,1.5,1.53,1111122 
ENP,ioos.station.NOAA.NDBC:LBRF1:1,2017-08-15T12:00:00Z,25.4840,-81.1330,1.5,8.29,1111122 
ENP,ioos.station.NOAA.NDBC:LBRF1:1,2017-08-15T13:00:00Z,25.4840,-81.1330,1.5,19.0,11111222 
ENP,ioos.station.NOAA.NDBC:LBRF1:1,2017-08-15T14:00:00Z,25.4840,-81.1330,1.5,22.55,1111122 
ENP,ioos.station.NOAA.NDBC:LBRF1:1,2017-08-15T15:00:00Z,25.4840,-81.1330,1.5,23.04,1111122 
ENP,ioos.station.NOAA.NDBC:LBRF1:1,2017-08-15T16:00:00Z,25.4840,-81.1330,1.5,13.87,1111122 
ENP,ioos.station.NOAA.NDBC:LBRF1:1,2017-08-15T17:00:00Z,25.4840,-81.1330,1.5,5.1,11111222 
ENP,ioos.station.NOAA.NDBC:LBRF1:1,2017-08-15T18:00:00Z,25.4840,-81.1330,1.5,1.98,1111122 
ENP,ioos.station.NOAA.NDBC:LBRF1:1,2017-08-15T19:00:00Z,25.4840,-81.1330,1.5,1.18,1111122 
ENP,ioos.station.NOAA.NDBC:LBRF1:1,2017-08-15T21:00:00Z,25.4840,-81.1330,1.5,0.97,1111122 
ENP,ioos.station.NOAA.NDBC:LBRF1:1,2017-08-15T22:00:00Z,25.4840,-81.1330,1.5,0.92,1111122 
ENP,ioos.station.NOAA.NDBC:LBRF1:1,2017-08-15T23:00:00Z,25.4840,-81.1330,1.5,0.9,1111122 
ENP,ioos.station.NOAA.NDBC:LBRF1:1,2017-08-16T00:00:00Z,25.4840,-81.1330,1.5,0.89,1111122 
ENP,ioos.station.NOAA.NDBC:LBRF1:1,2017-08-16T03:00:00Z,25.4840,-81.1330,1.5,2.99,1111122 
ENP,ioos.station.NOAA.NDBC:LBRF1:1,2017-08-16T06:00:00Z,25.4840,-81.1330,1.5,1.13,1111122 
ENP,ioos.station.NOAA.NDBC:LBRF1:1,2017-08-16T07:00:00Z,25.4840,-81.1330,1.5,1.03,1111122 
ENP,ioos.station.NOAA.NDBC:LBRF1:1,2017-08-16T08:00:00Z,25.4840,-81.1330,1.5,0.99,1111122 
ENP,ioos.station.NOAA.NDBC:LBRF1:1,2017-08-16T10:00:00Z,25.4840,-81.1330,1.5,0.88,1111122 
ENP,ioos.station.NOAA.NDBC:LBRF1:1,2017-08-16T11:00:00Z,25.4840,-81.1330,1.5,0.86,1111122 
ENP,ioos.station.NOAA.NDBC:LBRF1:1,2017-08-16T13:00:00Z,25.4840,-81.1330,1.5,5.49,1111122 
ENP,ioos.station.NOAA.NDBC:LBRF1:1,2017-08-16T14:00:00Z,25.4840,-81.1330,1.5,14.9,11111222 
ENP,ioos.station.NOAA.NDBC:LBRF1:1,2017-08-16T15:00:00Z,25.4840,-81.1330,1.5,21.72,1111122 
ENP,ioos.station.NOAA.NDBC:LBRF1:1,2017-08-16T16:00:00Z,25.4840,-81.1330,1.5,21.79,1111122 
ENP,ioos.station.NOAA.NDBC:LBRF1:1,2017-08-16T17:00:00Z,25.4840,-81.1330,1.5,9.34,1111122 